Wind_Speed
57 56 55 53 51 49 48 46 45 44 42 42 42 42 43 43 43 41 40 39 38 36 35 33 32 31 30 30 30 29 27 26 26 25 24 24 24 23 24 24 24 23 22 21 21 21 22 23 23 21 20 20 19 19 18 17 17 16 15 15 14 13 13 13 14 15 11 9 9 9 9 10 11 11 12 12 12 13 15 16 17 17 18 17 17
58 57 55 54 53 50 48 46 45 44 43 42 42 42 43 44 43 43 42 41 40 39 37 35 34 33 32 32 32 30 29 27 27 27 26 26 26 25 25 25 26 25 23 23 22 22 21 22 23 22 21 21 20 20 20 19 18 16 15 15 14 13 13 13 14 14 12 9 8 9 9 10 10 10 10 11 12 13 14 15 15 16 16 17 17
58 57 56 55 53 51 49 47 46 45 44 43 42 42 43 43 44 44 43 41 41 40 39 37 36 35 34 34 33 32 31 30 29 29 28 27 27 27 26 26 26 26 25 24 23 22 22 23 23 23 23 22 21 20 19 19 18 16 15 15 14 13 13 13 13 13 13 11 10 9 9 10 11 11 11 12 12 13 13 13 14 15 15 16 17
57 57 56 55 54 52 50 49 47 46 45 43 42 41 42 43 43 44 43 42 41 41 40 39 38 37 36 35 34 34 33 32 31 31 29 28 28 28 28 27 27 27 26 25 25 24 24 24 24 23 23 23 22 20 19 19 17 16 14 14 14 14 13 12 13 13 14 14 12 10 11 12 12 12 12 13 13 14 15 15 15 15 15 16 17
57 57 56 55 54 53 52 50 49 48 45 43 41 40 41 42 42 43 43 43 42 41 41 41 40 39 38 37 36 35 35 34 33 32 31 30 29 28 29 28 28 28 27 26 26 25 25 24 24 24 24 23 23 21 20 19 18 16 14 14 14 14 13 12 12 12 14 15 13 11 11 12 13 13 13 14 16 16 17 17 18 18 18 18 18
56 56 56 55 55 54 53 52 50 48 46 43 41 40 40 41 41 42 42 42 42 42 42 42 41 41 40 39 38 37 36 35 35 34 32 31 30 30 29 29 29 29 29 28 27 26 25 25 24 24 24 24 23 21 20 20 19 16 14 14 14 14 12 11 10 11 12 13 13 12 12 13 14 14 13 14 17 18 18 19 19 19 20 20 20
56 56 55 55 55 55 54 53 51 49 46 43 41 40 39 40 41 41 41 42 42 42 42 43 42 42 41 40 39 39 37 37 37 36 34 33 32 31 31 30 29 29 29 29 28 27 26 25 25 25 25 24 23 22 20 20 19 16 15 15 14 13 12 10 10 11 12 13 14 15 14 14 15 15 15 15 18 19 19 20 21 21 21 22 22
55 55 55 55 55 55 54 52 50 48 45 43 41 40 39 39 40 40 41 41 42 42 42 43 43 42 42 41 41 40 39 39 38 38 37 36 34 33 32 31 30 30 29 29 29 29 28 26 26 25 25 24 24 22 21 20 19 17 15 15 14 12 11 10 11 12 14 15 16 16 16 17 17 17 17 18 20 20 20 21 23 24 23 23 23
55 54 55 55 55 54 53 52 51 49 46 44 43 42 41 40 39 40 40 41 41 41 42 42 43 43 43 42 41 41 41 41 41 39 38 37 36 35 34 32 31 31 29 28 29 30 29 28 27 25 24 24 24 23 22 22 20 18 15 14 12 11 11 11 12 14 15 16 17 17 18 19 19 19 19 20 21 21 21 22 24 25 25 25 25
55 55 55 55 54 53 53 52 51 49 48 47 45 43 42 40 40 40 40 41 40 41 41 42 43 43 42 42 42 42 43 42 42 41 39 37 36 36 35 33 32 32 31 29 28 29 29 28 27 26 25 25 24 21 21 21 20 18 16 14 13 13 13 14 15 16 17 18 18 17 18 20 20 20 20 21 21 22 22 23 25 26 26 27 26
55 55 55 54 53 53 53 52 51 50 50 48 46 45 43 42 41 41 41 41 40 40 41 42 43 43 42 42 42 43 43 43 43 41 39 38 36 36 35 34 33 33 33 31 29 29 29 28 26 25 25 25 24 22 20 19 19 19 17 15 15 15 16 17 17 18 18 20 19 18 19 21 21 21 21 21 21 22 23 24 25 26 26 25 26
55 54 54 54 53 53 52 52 51 51 50 50 48 46 44 43 42 42 42 42 42 41 42 42 43 42 42 43 43 43 43 43 43 42 40 38 36 35 36 35 33 34 35 33 31 30 30 28 26 25 25 25 25 23 21 20 20 20 18 17 16 16 16 17 18 18 19 19 19 18 19 20 20 20 20 21 22 24 25 25 25 25 23 23 24
54 54 54 54 53 53 52 51 51 50 50 50 49 47 46 45 44 44 43 43 43 43 43 43 43 43 44 44 44 44 44 44 43 42 41 39 36 36 36 34 33 35 36 35 33 31 31 30 27 25 24 24 25 24 23 22 22 22 20 18 18 17 17 17 18 18 19 18 18 19 18 19 20 20 20 21 23 25 25 25 24 22 22 22 24
54 54 54 54 53 53 52 52 51 50 50 50 50 49 48 46 45 45 44 44 45 45 44 44 43 44 44 45 45 45 45 45 44 43 43 41 38 35 33 33 34 35 36 37 36 33 32 31 28 25 23 23 25 26 25 24 23 22 21 19 19 18 17 17 18 19 20 19 19 20 18 18 19 20 21 22 24 25 24 23 22 22 23 24 25
54 54 53 53 53 53 53 52 51 50 50 51 50 50 49 48 47 46 45 45 45 45 46 45 44 44 44 45 46 47 47 46 45 45 44 43 41 36 31 32 35 35 36 39 38 34 33 32 29 26 24 23 24 25 25 24 23 23 22 20 19 18 18 18 19 21 22 21 20 19 18 18 20 21 21 22 24 23 23 23 23 23 24 25 25
53 53 53 53 53 53 53 52 52 51 51 51 51 51 50 49 49 48 47 46 45 46 46 46 45 45 45 46 47 47 47 46 45 45 44 43 42 38 35 33 33 34 36 37 36 34 33 31 29 26 23 22 22 23 23 23 23 23 22 20 19 19 19 19 21 23 22 20 19 19 19 20 21 21 21 22 23 23 23 23 24 23 24 25 27
53 53 53 53 53 53 53 52 52 51 51 52 52 52 51 50 49 49 48 48 47 46 46 46 46 45 45 46 47 46 46 45 44 43 44 43 40 38 38 37 35 33 33 32 30 31 32 32 30 26 22 21 21 21 22 23 23 23 21 20 21 20 20 20 22 22 21 20 20 21 21 22 22 21 22 23 23 23 23 24 23 23 24 26 27
52 52 53 53 53 53 53 53 52 51 51 52 53 52 51 50 49 49 49 49 47 46 45 45 45 46 46 47 46 45 45 43 42 42 43 42 39 35 36 36 33 30 31 28 24 24 27 30 31 28 23 20 19 20 22 23 24 23 22 22 23 23 21 21 22 21 21 21 22 23 23 23 22 22 23 23 23 23 24 24 23 23 23 23 24
51 51 52 53 53 53 53 53 52 52 52 53 53 52 51 50 49 48 48 48 46 45 45 45 45 46 47 46 45 44 44 42 41 41 41 41 39 34 33 34 30 24 26 28 23 20 23 27 30 29 24 19 18 19 22 24 24 23 22 23 25 24 22 21 20 20 21 22 23 23 23 23 23 23 24 23 23 23 23 22 21 21 21 21 22
46 48 49 51 52 53 52 52 53 53 53 53 53 53 51 49 48 48 48 47 46 45 45 45 46 46 46 45 43 43 43 41 40 40 40 40 39 34 30 31 27 19 20 24 22 20 23 26 27 27 24 21 19 19 21 23 24 23 23 24 25 24 21 20 20 21 22 23 23 23 22 22 23 23 23 22 21 20 19 18 18 19 20 20 19
42 44 46 49 51 52 53 53 54 54 54 54 54 53 52 50 49 47 46 45 45 45 45 45 45 45 44 43 43 42 41 39 38 38 37 37 38 35 29 25 20 15 16 20 21 21 24 25 25 24 23 21 20 19 20 22 24 24 24 23 23 22 21 21 21 23 24 24 23 23 22 23 23 23 22 20 18 17 17 17 17 17 16 16 16
43 44 46 48 50 52 53 54 55 55 54 54 54 54 53 51 49 47 45 45 45 45 46 45 45 44 43 43 42 40 38 37 36 35 34 34 35 33 27 19 14 13 14 17 19 21 21 22 22 22 21 20 19 19 21 24 24 24 23 22 22 22 21 21 22 23 23 23 23 23 23 22 21 20 18 16 15 15 15 15 15 15 14 15 16
45 45 47 49 50 52 53 54 55 55 55 55 55 55 53 51 50 47 45 45 46 46 46 46 46 45 44 43 41 39 38 37 35 32 32 31 29 27 22 14 11 12 13 15 16 17 17 18 20 21 20 18 18 21 23 24 23 22 22 22 22 22 20 20 21 21 21 21 22 21 20 19 18 16 14 13 12 12 12 12 13 14 15 16 18
44 46 48 50 51 52 53 53 54 54 54 54 54 54 53 52 51 49 46 46 46 47 47 47 46 46 45 43 41 39 38 36 33 29 27 25 22 20 18 13 11 12 13 14 13 13 14 16 18 19 17 16 17 21 23 22 22 22 22 22 22 21 20 20 19 19 19 19 19 17 15 14 13 12 11 10 10 10 11 12 13 14 15 17 19
44 46 49 51 52 53 53 53 54 54 54 55 54 55 55 54 52 51 49 47 48 48 47 47 47 46 45 42 40 39 37 35 31 26 23 21 18 17 17 14 13 13 14 14 13 13 14 16 16 15 15 16 18 21 22 22 22 22 21 20 20 20 20 18 16 16 17 16 14 13 11 11 11 10 10 11 11 12 12 13 15 16 17 19 20
44 47 49 51 52 52 53 53 54 55 55 55 56 56 57 55 53 53 51 49 49 49 49 48 47 46 44 41 39 37 35 32 28 24 22 21 21 19 17 16 16 16 15 15 15 15 15 15 14 14 15 17 19 21 21 21 20 19 18 18 18 18 16 14 14 14 13 11 10 10 10 10 11 11 11 12 12 13 14 16 17 18 19 20 22
42 45 47 49 50 51 52 53 54 55 56 56 56 57 57 55 53 53 53 52 51 50 49 48 47 45 42 40 37 35 33 30 26 23 22 23 23 21 19 19 20 19 18 18 17 16 16 15 15 15 16 17 19 20 20 19 17 16 16 17 16 14 12 11 12 11 9 8 9 10 10 10 10 11 12 13 13 14 15 17 19 20 20 22 23
37 41 45 47 49 50 52 53 54 55 56 56 55 55 56 55 53 53 55 54 53 52 51 49 47 44 40 38 36 33 30 26 22 21 22 23 22 21 22 22 22 21 20 19 18 17 17 17 17 17 17 17 18 18 18 17 16 17 17 16 13 11 10 11 10 8 7 9 10 11 10 10 10 11 13 14 14 15 16 17 19 20 21 22 24
36 38 41 46 49 50 50 52 54 55 56 56 55 55 55 54 53 53 55 55 54 52 49 47 45 41 38 36 34 30 25 22 20 21 22 21 20 21 21 21 21 20 20 20 19 19 19 19 19 19 18 18 18 18 17 16 16 16 15 13 11 10 10 10 8 7 9 11 11 11 10 10 11 13 14 14 15 15 16 18 19 21 22 22 22
37 40 42 44 47 48 49 51 53 55 57 57 57 56 55 55 54 54 55 54 50 46 41 39 38 35 31 28 25 22 21 21 22 22 20 18 18 19 18 17 18 20 20 20 20 20 19 20 20 20 19 18 17 17 16 16 15 14 13 12 10 10 10 9 7 8 10 11 12 11 11 11 13 13 14 14 15 15 17 19 20 20 20 19 18
32 39 44 47 47 47 48 50 51 53 56 59 60 60 58 56 54 54 53 51 45 37 30 26 26 24 21 19 18 18 18 19 19 19 18 18 18 18 17 16 18 19 20 21 20 20 20 20 20 20 18 17 17 16 16 15 14 13 12 11 10 10 9 8 9 10 12 12 12 13 13 13 13 13 13 14 15 17 19 20 19 18 17 16 17
24 28 36 44 48 48 49 51 52 52 53 54 57 60 61 58 52 46 44 43 39 32 24 20 19 17 15 15 16 17 18 18 17 17 18 19 19 19 19 18 18 19 20 20 19 19 19 20 20 18 17 17 16 16 15 14 13 12 12 11 11 10 9 9 11 12 12 13 14 15 15 14 13 13 14 15 17 18 19 18 17 16 16 16 17
16 13 15 24 35 38 37 38 41 44 48 50 49 52 57 59 53 46 40 36 33 30 27 24 21 19 17 17 16 16 17 18 17 17 18 19 20 20 20 19 19 19 20 19 19 19 19 19 19 17 16 15 14 14 14 13 12 12 12 11 10 10 10 11 12 12 13 14 15 16 15 13 13 14 15 16 17 17 17 16 16 16 16 17 18
13 11 6 4 14 15 12 14 19 24 32 39 40 40 43 46 46 45 43 38 34 31 28 26 24 21 20 20 20 18 18 18 18 18 19 20 21 22 21 21 21 21 20 19 18 19 19 19 18 17 15 13 12 12 12 12 12 12 12 11 11 11 12 13 13 13 14 15 15 15 15 14 14 15 16 16 16 16 16 16 16 16 17 17 18
6 7 6 1 6 5 7 13 15 13 17 24 27 26 26 27 29 32 35 35 34 31 28 26 25 23 22 22 22 21 20 18 18 19 20 21 22 22 22 22 23 24 23 21 19 19 19 18 17 15 14 12 11 10 11 11 12 11 10 10 11 12 13 14 15 15 15 15 15 15 14 15 16 16 16 15 15 15 15 15 16 16 16 17 18
18 14 8 3 3 6 11 16 16 14 16 22 23 22 21 22 24 26 28 28 27 26 26 25 24 24 23 22 21 21 21 19 18 19 20 20 21 22 23 23 23 23 22 20 19 18 17 16 15 14 12 10 10 10 10 10 10 9 8 9 10 11 12 14 15 15 15 14 14 14 15 15 16 16 15 14 14 14 15 15 15 15 16 17 18
22 23 18 14 11 11 14 16 15 15 17 18 19 20 20 21 23 24 23 22 22 22 24 24 23 23 23 22 22 22 22 20 20 19 19 19 20 21 22 22 21 20 19 18 17 17 17 17 15 13 11 10 9 10 10 8 8 7 7 7 8 10 11 13 14 14 13 13 14 14 14 15 15 14 13 12 13 13 14 15 15 15 15 17 18
17 17 16 14 13 12 13 13 13 14 14 14 15 17 18 19 19 19 19 20 21 22 22 22 21 21 21 22 23 23 22 22 23 22 20 20 21 21 20 19 18 18 17 16 15 16 17 17 14 12 11 10 10 10 8 7 6 6 6 6 7 9 11 12 12 12 13 13 13 13 13 13 13 12 12 12 12 13 13 13 14 14 15 16 17
14 12 11 11 11 11 11 11 11 12 13 14 15 16 17 18 18 18 18 18 18 18 18 18 18 18 19 21 22 22 22 23 24 24 23 22 21 21 20 19 19 18 17 16 16 17 17 16 14 13 12 11 10 9 8 7 6 6 6 7 9 10 11 12 12 12 12 12 11 10 10 11 11 12 12 12 12 12 12 12 13 14 15 16 17
15 13 11 10 10 10 10 11 11 12 12 13 14 15 16 17 18 18 18 17 16 16 16 16 17 17 18 20 21 20 21 22 23 23 22 21 21 20 20 19 19 18 17 17 18 18 17 15 14 13 12 11 10 9 8 7 7 8 8 9 10 11 11 11 11 10 10 9 9 9 9 10 11 12 12 12 12 13 12 12 12 14 15 16 17
16 17 16 13 12 11 11 11 12 11 11 12 12 12 13 14 15 16 16 15 16 17 17 17 17 18 18 18 17 17 18 19 20 20 19 19 18 18 17 17 17 17 18 18 18 17 15 15 14 13 12 11 10 9 8 8 9 9 9 9 9 9 8 7 7 7 7 8 9 11 11 10 10 11 12 13 14 14 13 13 13 14 15 15 16
14 16 16 15 14 12 12 12 12 13 13 12 12 12 12 13 15 16 16 15 16 17 18 18 18 18 18 18 16 16 15 15 16 16 16 15 15 15 15 15 16 16 16 16 15 15 15 15 14 13 12 11 10 8 8 9 9 9 8 8 8 8 8 7 8 8 9 10 11 12 12 11 10 11 12 14 14 15 14 14 14 14 15 15 14
12 13 14 13 13 12 12 11 12 12 11 12 13 13 13 14 15 16 15 15 14 15 17 18 18 18 19 18 17 16 15 14 14 14 14 14 14 14 14 15 15 15 15 14 14 15 15 15 14 12 11 10 9 8 8 9 9 9 9 10 10 10 10 11 11 11 12 13 13 14 13 12 11 12 13 14 15 16 15 14 14 14 14 14 12
7 8 9 9 9 9 9 9 9 9 9 10 12 13 12 13 15 15 14 15 15 15 17 19 20 20 20 19 18 17 16 16 15 15 15 14 14 14 14 15 15 15 15 15 15 16 15 14 13 11 10 9 8 7 7 8 10 11 12 12 13 13 13 14 14 15 15 16 16 15 14 13 13 14 15 16 16 16 15 14 14 14 14 13 11
4 5 5 4 4 4 4 4 5 5 4 6 9 11 13 13 14 14 14 15 16 16 17 19 20 21 21 21 19 18 17 17 17 17 16 15 15 15 15 16 16 16 16 16 16 16 15 13 11 10 9 7 5 5 6 8 10 12 13 14 15 16 16 16 17 17 18 18 17 16 15 15 15 15 15 15 14 14 13 13 14 14 13 11 9
2 2 2 2 2 3 3 1 2 3 4 5 6 9 12 13 13 14 15 15 14 14 15 17 19 20 21 20 19 17 17 17 16 16 16 15 15 15 15 16 16 17 17 17 16 15 13 11 9 8 7 5 3 4 5 6 7 9 11 13 15 16 17 17 18 18 19 19 18 17 17 17 16 15 14 13 13 12 12 13 13 13 12 10 9
2 2 2 3 4 5 5 4 5 6 6 7 8 8 10 12 12 13 14 16 14 12 12 14 17 18 19 18 17 16 15 15 14 14 14 14 14 14 14 15 15 17 17 17 15 13 11 10 8 7 6 4 4 5 6 6 6 6 7 9 11 13 14 14 15 16 17 17 18 18 18 18 17 16 14 13 13 12 12 12 12 12 11 9 9
3 3 3 3 5 7 7 6 7 8 8 10 11 10 11 12 13 12 13 14 13 12 12 13 15 16 16 16 15 14 14 13 13 13 14 14 14 13 13 14 15 17 17 16 14 12 11 9 8 7 6 6 6 6 7 7 6 6 7 8 8 9 9 10 11 13 14 16 16 16 16 15 15 15 14 13 13 12 12 12 12 11 10 9 9
4 3 2 2 4 7 8 8 8 8 8 10 12 14 14 15 15 14 14 13 12 13 14 15 15 15 16 16 16 15 13 13 13 14 15 15 15 14 15 15 16 16 16 15 13 11 10 8 8 7 7 7 7 8 8 7 6 7 8 8 8 7 7 7 9 11 12 12 12 11 11 11 11 12 13 12 12 12 12 12 12 11 11 10 10
4 3 2 2 3 5 6 7 7 7 7 8 10 13 14 15 16 17 17 15 15 16 18 17 17 16 16 16 15 14 13 13 13 13 15 15 15 15 17 17 16 16 15 14 12 10 9 8 8 9 9 9 9 8 8 7 7 7 8 8 8 8 6 5 6 7 8 8 8 8 8 9 10 11 12 12 12 12 12 12 12 12 11 11 11
7 6 5 5 4 4 4 4 5 5 5 4 5 6 9 12 16 19 20 19 18 18 17 16 16 16 16 14 13 12 11 11 11 12 13 14 14 15 16 16 15 14 13 12 11 10 9 8 9 11 12 12 10 9 9 9 8 7 8 8 7 7 6 4 3 3 4 5 6 7 8 9 10 11 11 12 12 12 12 13 13 12 11 11 12
Wind_Direction
224 225 226 228 229 230 231 232 233 235 235 235 235 234 233 234 234 235 236 236 236 237 238 238 240 241 241 242 242 242 242 239 239 241 241 242 242 243 243 243 242 236 231 231 231 233 235 237 238 237 238 241 244 246 247 249 252 252 252 254 255 258 261 263 271 278 280 276 274 277 278 278 278 279 281 280 279 280 281 282 284 285 286 287 288
224 225 226 228 229 230 231 233 233 234 235 235 236 234 233 234 235 236 236 237 237 238 239 239 239 241 241 242 243 243 243 240 239 241 242 242 243 243 243 243 245 243 238 236 235 235 237 239 238 236 236 238 240 242 243 243 246 249 252 255 257 258 260 261 266 272 276 275 273 275 279 284 286 285 285 283 279 278 279 281 285 288 290 292 293
225 226 227 228 230 231 232 232 233 233 234 235 235 234 233 233 234 236 236 237 237 238 240 240 240 241 241 242 243 243 244 241 239 240 242 243 243 244 244 244 246 246 244 241 239 238 239 240 240 237 236 237 237 239 240 240 241 244 248 252 254 254 255 257 260 266 272 275 274 278 285 291 293 294 294 292 289 289 287 286 288 291 295 298 299
225 226 227 228 229 230 231 232 232 233 233 234 235 234 233 233 234 235 237 237 238 239 239 241 241 242 243 243 243 243 244 242 240 240 242 243 244 245 246 246 246 247 247 246 243 240 239 240 241 239 238 239 238 237 240 241 240 241 246 249 251 251 254 259 265 271 276 278 282 290 297 301 303 305 304 301 299 299 297 295 293 293 295 299 301
224 225 226 226 228 230 231 231 232 233 233 234 234 234 233 233 233 235 236 238 239 239 240 240 241 242 243 244 244 244 244 244 242 242 242 244 244 245 247 247 247 248 248 248 246 243 240 240 241 241 241 242 241 238 239 240 238 239 245 251 254 255 257 264 272 278 280 284 292 301 306 309 311 312 312 307 304 302 301 300 298 296 297 297 297
224 224 225 225 228 229 230 231 232 233 233 234 234 234 234 234 234 234 235 237 239 240 240 240 241 243 244 245 246 246 246 246 244 243 243 244 245 246 248 249 249 248 247 247 248 247 244 241 240 240 240 242 242 241 240 238 236 237 245 255 258 257 260 267 274 278 282 289 298 304 310 312 310 311 313 311 307 305 305 305 303 301 301 299 296
223 224 224 225 228 230 231 232 232 233 234 235 234 234 234 234 235 234 235 236 238 240 240 241 242 244 245 247 248 248 248 248 247 246 245 244 245 246 248 250 251 250 247 247 248 250 249 244 241 240 240 241 242 243 242 240 238 238 248 257 259 260 265 270 272 276 283 292 298 302 307 307 305 307 310 308 305 306 310 312 309 306 306 302 298
223 224 224 225 228 230 231 232 233 234 235 236 235 235 234 234 235 235 235 236 238 239 240 242 243 245 247 248 249 249 249 249 248 247 246 245 245 246 248 250 252 253 250 247 247 249 250 248 244 242 243 243 244 244 243 243 241 242 249 256 259 262 265 268 272 277 284 290 295 298 301 302 302 305 308 307 305 308 313 312 308 307 308 303 298
223 223 224 226 229 230 231 232 233 234 235 235 235 234 234 234 234 235 235 236 237 239 240 242 243 245 247 248 249 250 249 249 249 248 247 246 246 247 248 250 253 256 254 250 248 248 248 249 247 244 244 246 245 244 243 243 244 246 249 252 254 258 259 263 271 277 282 285 287 291 295 297 300 303 305 308 310 311 313 309 306 307 308 304 300
223 224 226 229 230 229 229 231 232 233 234 235 235 234 234 234 234 234 235 235 236 238 240 241 243 245 247 248 249 249 250 250 249 249 248 247 248 249 251 252 254 257 256 253 251 248 247 249 249 245 243 244 244 242 241 243 245 247 247 244 244 249 254 259 264 270 274 275 277 283 288 292 298 301 303 309 312 312 310 309 307 308 308 304 301
223 226 229 230 230 228 229 230 231 233 234 234 234 234 234 234 233 234 234 235 236 237 239 241 242 244 246 248 249 250 251 251 251 251 249 248 249 252 253 253 255 258 258 256 253 249 246 248 249 247 243 241 239 239 239 242 244 244 242 239 239 243 250 256 260 265 270 272 274 278 284 290 296 301 304 309 311 309 309 309 308 309 308 304 301
224 227 230 229 227 228 229 229 231 233 234 234 234 234 234 234 234 234 234 234 235 235 238 240 242 244 246 247 250 251 252 253 253 253 251 249 249 252 253 254 255 257 257 256 255 251 248 247 250 249 246 241 238 237 238 240 242 240 237 238 240 244 250 257 263 269 273 275 275 276 282 290 295 300 305 308 308 308 309 309 308 308 307 303 299
226 228 228 227 227 229 229 229 231 233 234 233 233 233 233 234 234 233 234 234 234 235 237 239 241 243 245 247 250 251 253 254 255 255 253 250 248 251 253 254 255 257 258 257 256 254 251 248 250 252 250 245 241 239 238 239 241 239 236 239 244 249 256 261 267 272 273 272 273 277 284 291 295 301 306 308 308 309 309 307 306 304 301 299 298
226 227 226 226 228 229 228 229 232 234 234 233 232 232 233 234 233 233 234 234 234 235 236 238 240 242 245 247 250 252 253 255 256 257 255 250 247 250 253 255 256 259 260 258 256 254 252 249 250 254 254 250 245 241 239 240 242 240 238 241 246 252 261 268 273 273 269 266 271 277 283 290 296 303 307 308 307 307 306 303 302 300 298 299 299
227 226 225 226 228 228 228 230 232 233 232 231 231 232 233 234 233 233 233 233 234 235 236 238 240 241 244 247 249 251 253 255 257 258 255 250 248 248 249 253 256 258 258 257 256 257 253 248 248 254 256 252 248 244 241 242 242 240 240 243 248 255 263 270 274 272 267 266 271 276 282 292 301 306 308 307 305 304 301 299 299 299 298 297 295
227 226 226 227 228 228 229 230 231 231 231 230 231 232 233 233 233 233 233 233 234 236 237 238 240 242 244 246 247 250 253 255 258 258 255 252 249 246 243 243 246 251 254 255 256 257 252 246 245 251 254 252 247 242 239 240 239 238 242 248 252 256 262 267 272 272 267 266 273 281 289 298 303 305 307 307 306 302 297 295 297 298 297 295 295
227 228 229 229 229 230 230 230 230 230 230 230 232 233 233 233 233 233 232 233 233 235 236 238 240 242 244 245 247 249 253 256 259 259 257 252 247 248 249 242 236 240 248 253 256 254 248 244 246 251 255 250 243 238 236 236 236 238 245 251 253 255 260 266 272 273 268 269 279 289 296 301 303 305 308 309 307 302 296 296 298 298 296 296 297
229 230 231 232 232 231 231 230 230 231 232 233 234 234 233 234 234 233 233 233 234 235 236 238 240 242 243 245 247 250 253 257 260 260 257 251 247 253 258 249 240 241 245 246 250 250 246 244 246 250 254 247 238 236 235 233 234 239 245 251 254 256 261 269 277 277 272 275 286 293 297 300 302 305 309 310 306 299 296 297 298 297 294 294 296
232 232 234 235 234 232 231 231 231 232 234 236 236 235 234 234 234 234 234 235 236 236 237 238 240 241 243 245 248 250 253 257 260 259 257 253 249 254 259 253 249 251 246 241 242 245 244 244 245 249 252 245 237 236 235 233 236 240 247 254 258 260 264 273 281 283 280 283 289 292 294 297 301 306 310 309 304 297 295 297 296 294 292 293 297
238 238 238 237 235 234 232 232 233 233 235 237 236 235 235 234 234 234 235 236 237 237 237 238 239 241 243 245 247 250 251 255 258 258 257 255 252 252 254 253 250 250 243 239 240 244 245 244 244 247 250 248 242 235 233 236 239 243 252 260 263 263 267 273 280 284 287 289 290 290 293 298 303 308 309 305 301 298 297 297 296 296 297 299 301
246 244 242 238 236 235 235 235 235 235 235 235 234 234 234 233 233 234 235 236 236 236 236 237 239 241 243 245 246 248 251 254 256 256 257 258 257 254 253 249 243 242 242 240 242 245 246 246 246 247 250 252 246 236 236 239 241 247 257 265 267 266 268 273 280 287 290 291 290 291 295 300 304 306 305 302 300 298 298 299 299 300 301 301 301
246 245 243 240 238 237 237 236 236 235 233 231 230 231 232 232 232 234 235 236 236 236 236 237 238 239 241 243 244 247 250 253 254 255 256 258 259 259 257 248 236 237 243 243 244 247 249 251 250 251 255 254 244 236 238 240 243 252 262 267 268 267 268 275 284 289 289 288 290 293 297 302 304 304 301 299 297 297 300 303 304 304 303 303 306
245 244 242 241 240 239 238 237 235 233 230 228 228 228 229 229 230 231 233 234 234 235 235 236 236 237 238 240 242 245 248 250 250 252 253 255 257 260 261 254 240 237 240 241 244 248 251 252 252 254 254 246 235 235 238 241 248 259 265 266 264 263 267 279 287 288 286 287 291 296 301 303 302 301 298 298 301 305 311 313 310 308 307 308 310
245 245 244 242 240 239 238 236 234 232 230 227 225 224 226 228 228 229 231 232 233 234 235 234 234 235 236 237 239 241 243 246 247 248 247 247 250 253 252 245 236 233 232 234 238 245 250 253 256 256 245 230 228 235 240 246 257 264 263 261 258 259 270 282 286 284 286 290 296 300 303 300 297 297 300 305 313 318 319 317 314 312 310 309 310
245 245 245 244 241 240 238 236 233 232 230 227 223 221 222 225 227 228 228 229 230 231 232 233 233 234 234 235 237 238 240 241 241 238 233 228 229 234 235 231 225 222 223 226 231 240 249 254 254 247 232 223 230 239 246 256 262 260 256 255 256 263 274 282 282 284 289 294 298 300 298 294 294 298 302 309 315 316 313 313 314 314 312 309 308
247 245 244 243 242 240 236 233 232 231 229 228 225 222 220 221 225 227 226 226 227 228 230 231 231 231 232 234 235 236 237 236 231 225 221 218 218 221 221 217 213 214 216 220 225 235 245 245 236 228 225 230 237 245 253 256 254 249 249 255 261 267 274 277 279 285 292 295 297 297 293 292 294 295 299 306 310 308 307 310 315 317 315 311 310
250 248 245 242 241 238 235 233 231 230 228 226 224 221 217 218 222 225 224 223 223 223 225 227 228 228 229 231 232 232 230 226 221 218 218 217 215 214 210 205 205 208 210 214 220 229 233 227 218 218 227 234 240 246 249 245 241 244 253 260 264 266 267 270 277 285 292 293 292 290 286 287 290 293 298 305 308 306 307 312 316 317 316 314 313
253 250 247 243 239 236 234 233 231 229 226 223 220 216 213 213 218 224 225 224 223 221 222 224 225 226 226 226 225 223 220 217 216 219 220 217 212 208 203 200 202 205 206 210 216 220 218 215 215 218 224 231 239 243 241 238 242 252 257 259 258 256 257 265 275 284 288 286 282 279 278 282 290 296 301 306 308 307 309 312 314 314 314 314 312
258 252 247 244 240 237 234 233 231 228 224 219 216 214 211 211 215 221 223 223 223 222 220 220 221 222 223 222 219 216 213 215 220 224 223 219 213 208 205 204 205 205 205 208 212 211 211 214 217 219 224 233 241 241 240 244 251 254 252 248 245 245 252 262 274 282 280 275 272 270 275 286 294 299 303 306 307 307 308 310 310 310 311 310 307
258 254 248 243 239 236 233 231 228 224 221 217 213 210 208 208 213 218 218 216 215 216 218 220 220 218 217 216 217 218 221 221 220 216 213 210 207 207 209 211 208 203 201 204 206 208 213 217 219 221 228 239 243 243 246 251 252 246 239 235 234 240 250 261 271 270 265 264 266 270 278 287 292 296 299 301 303 305 308 308 307 306 306 303 301
252 251 247 241 238 234 230 225 221 217 215 214 211 206 201 200 205 212 214 212 211 212 215 219 220 216 211 208 210 214 215 212 209 205 201 200 201 203 205 205 203 200 201 204 207 212 216 219 221 225 234 242 244 246 248 248 241 233 229 229 233 242 252 259 261 257 255 260 267 273 278 283 286 289 291 295 300 306 309 308 305 304 301 299 301
246 246 242 236 232 229 224 219 214 209 206 205 203 201 197 193 193 195 199 202 202 196 189 187 190 191 190 191 196 198 196 194 197 200 201 202 201 199 196 195 196 199 203 209 215 218 219 220 223 229 238 243 244 243 240 235 229 228 229 231 239 247 249 250 251 253 257 264 270 274 278 280 281 283 288 296 304 309 309 306 304 302 299 300 306
262 267 250 222 211 209 209 206 200 194 190 188 185 184 184 182 177 169 165 169 172 168 163 164 167 167 170 176 182 186 187 188 192 196 200 202 199 191 186 188 195 202 209 215 219 219 218 219 225 233 240 241 237 233 229 228 231 234 233 234 241 244 240 242 252 260 266 273 277 277 277 277 278 284 292 300 306 309 308 305 302 300 300 304 308
276 286 300 156 159 168 171 166 163 163 166 166 161 157 159 161 157 150 145 147 151 153 154 159 162 166 174 180 180 180 182 185 191 194 195 196 192 184 182 189 199 207 214 219 219 215 216 221 229 234 233 227 223 224 229 236 242 243 239 238 241 238 234 239 251 262 268 273 275 274 272 273 279 287 295 302 306 307 304 301 298 298 302 306 309
310 282 281 67 95 100 126 141 145 142 138 140 141 140 140 141 139 138 139 144 148 150 153 160 166 173 179 180 179 180 181 184 191 192 189 188 186 183 186 195 203 208 212 213 212 214 221 228 229 224 217 216 225 235 242 248 250 246 243 242 242 242 241 243 247 252 257 261 262 263 268 275 282 290 298 303 304 300 296 295 296 300 305 308 308
49 43 31 41 102 122 123 125 130 131 126 125 129 133 136 139 140 142 144 149 151 152 157 164 168 171 174 175 178 182 182 181 185 186 185 186 186 187 192 198 204 208 210 209 210 218 224 221 214 212 217 229 244 249 248 247 244 241 244 246 246 250 253 250 247 246 248 251 254 261 269 277 285 294 300 300 296 292 292 295 298 301 306 308 309
63 61 58 61 77 94 95 90 92 103 111 115 121 128 134 142 148 149 150 153 155 157 161 163 165 168 172 175 178 181 179 176 177 181 183 186 188 192 197 202 204 207 208 210 215 220 217 208 207 219 234 244 246 243 241 239 239 242 248 248 246 248 249 247 245 245 248 253 260 267 275 284 292 296 294 290 290 292 294 298 299 301 306 309 309
68 71 73 74 77 82 84 85 90 99 108 116 126 132 138 144 149 150 150 152 154 155 157 159 163 171 176 175 175 177 177 175 176 179 184 188 191 196 200 205 208 209 211 214 218 216 211 209 216 229 238 237 234 232 232 234 239 244 246 248 249 248 246 245 246 248 254 262 268 275 285 291 292 288 283 285 293 298 300 300 302 304 309 311 311
75 76 80 86 92 98 103 107 109 111 117 124 130 134 137 138 139 140 141 143 146 148 152 156 161 169 175 175 174 175 179 182 182 184 188 192 196 199 202 205 208 209 211 214 212 208 208 214 221 227 227 224 222 223 226 233 243 251 259 263 261 255 251 250 251 254 259 266 274 284 295 296 287 278 278 287 298 305 306 305 306 309 312 314 314
88 85 83 86 95 103 109 115 119 122 126 129 132 135 136 135 135 135 136 139 142 144 149 156 161 166 173 177 177 180 186 189 190 191 194 197 199 201 203 205 206 205 204 205 204 205 210 217 220 220 217 213 212 218 228 242 254 263 269 270 264 257 253 252 253 257 263 269 277 289 299 300 289 278 277 285 296 304 305 303 305 311 314 314 313
83 82 82 81 84 90 97 106 113 117 121 126 127 129 131 132 134 136 139 143 147 147 150 157 163 166 171 176 179 185 191 193 193 196 199 201 203 203 202 201 201 200 200 202 204 208 213 216 215 213 209 206 210 221 236 254 265 271 275 273 260 249 246 247 249 257 265 270 277 284 292 296 291 280 275 281 291 297 298 299 304 310 311 311 312
76 78 78 77 78 83 91 100 107 109 109 109 108 112 121 129 132 136 142 145 148 150 154 160 167 173 175 177 182 188 193 196 197 199 201 203 204 203 200 198 200 201 203 207 210 212 212 212 210 207 205 207 217 235 255 270 276 279 283 278 260 248 252 261 264 268 273 274 275 278 282 285 284 278 274 278 285 290 292 295 300 305 307 309 311
70 72 73 74 77 80 84 93 101 103 100 97 99 106 120 129 131 136 142 147 151 156 159 164 172 179 180 180 182 185 188 190 193 198 203 204 202 200 198 199 201 204 206 208 209 211 211 209 205 203 207 219 238 259 276 285 287 286 286 282 273 269 273 277 276 276 276 275 273 274 276 277 276 273 272 275 281 285 288 291 295 298 302 308 310
56 65 69 70 73 74 77 86 93 92 88 93 103 115 128 136 139 145 152 157 161 167 171 175 181 185 186 187 188 187 187 188 191 196 203 204 202 200 199 198 202 208 207 202 200 202 203 202 200 204 217 233 249 268 284 292 293 289 283 278 274 272 274 276 277 277 275 273 271 271 270 268 267 266 268 272 276 279 282 285 289 294 301 307 306
36 65 73 71 64 53 54 78 97 104 111 123 132 142 150 154 156 162 167 168 170 176 182 185 188 191 194 197 197 194 193 195 199 201 203 202 202 203 202 203 207 209 204 194 190 190 191 195 201 211 221 230 243 266 283 290 290 286 280 275 273 272 273 274 275 274 271 269 267 264 261 260 259 261 263 267 271 273 276 279 285 294 302 305 297
17 48 57 51 8 341 326 269 197 184 180 179 175 169 169 173 177 179 177 175 176 182 186 188 192 196 199 200 201 199 199 200 201 202 202 203 202 204 206 209 209 205 197 191 189 189 191 198 205 207 208 218 243 267 273 278 283 283 280 277 274 272 271 271 271 270 267 264 260 257 254 254 253 253 255 259 263 266 270 276 285 295 301 298 286
0 337 342 353 343 329 312 271 237 222 213 217 219 204 189 194 204 204 194 187 184 186 191 193 195 198 198 197 195 194 193 192 191 192 196 198 198 199 203 203 197 192 191 191 192 196 201 204 202 199 207 228 250 256 256 261 270 282 290 290 282 275 272 271 270 267 262 257 254 253 253 251 249 247 250 254 258 261 266 275 285 293 293 285 276
359 334 334 343 333 320 308 284 261 254 250 241 233 224 216 217 222 221 213 204 196 193 195 193 188 185 184 182 181 182 183 183 184 187 191 194 194 195 196 193 190 190 192 194 197 202 205 201 196 202 221 239 247 247 251 261 272 283 299 309 306 294 285 279 272 264 258 255 255 257 257 256 251 247 247 250 253 258 266 275 283 286 282 274 267
358 347 336 317 306 303 304 298 287 281 271 248 231 228 233 233 227 221 220 219 212 205 199 192 183 177 174 173 175 179 183 185 187 190 193 194 193 192 192 193 194 196 197 199 202 206 203 198 201 215 229 239 244 248 255 266 276 283 295 312 324 324 312 294 279 269 264 264 264 261 258 253 248 243 243 246 250 256 265 273 277 278 275 267 260
9 4 353 321 299 296 301 303 300 293 277 248 232 232 235 231 223 219 220 219 213 207 201 193 183 178 175 173 174 176 179 183 189 194 195 193 192 194 198 201 203 202 202 206 210 211 205 204 212 223 231 236 241 248 256 264 271 280 289 306 323 332 327 307 285 273 266 264 260 254 248 244 241 240 243 247 251 257 265 270 273 275 272 263 257
28 20 11 357 339 324 322 323 315 302 284 255 236 230 220 212 211 215 218 219 217 215 209 198 184 175 171 170 169 167 165 171 182 193 195 194 192 194 197 199 201 201 204 208 211 209 210 218 226 230 232 236 241 250 258 261 266 273 280 290 308 325 331 326 307 292 279 267 257 250 245 243 242 244 246 249 252 258 264 269 272 274 271 263 258
Height
1478 1481 1484 1487 1490 1493 1496 1498 1501 1504 1506 1509 1510 1513 1515 1517 1519 1522 1524 1526 1527 1529 1531 1533 1534 1536 1537 1538 1539 1541 1543 1544 1544 1545 1544 1545 1545 1547 1548 1550 1550 1550 1551 1552 1553 1554 1554 1555 1556 1557 1558 1559 1560 1561 1562 1563 1564 1564 1565 1565 1565 1566 1566 1566 1566 1565 1566 1567 1567 1567 1567 1567 1567 1567 1567 1567 1567 1567 1566 1566 1565 1565 1565 1564 1564
1474 1477 1481 1484 1486 1489 1492 1495 1498 1500 1502 1504 1506 1509 1511 1513 1516 1518 1520 1522 1524 1526 1528 1530 1531 1533 1534 1535 1537 1539 1540 1541 1542 1542 1542 1542 1543 1545 1546 1547 1548 1549 1549 1550 1551 1552 1553 1553 1554 1555 1556 1557 1558 1559 1560 1561 1562 1563 1563 1564 1564 1564 1564 1565 1564 1564 1564 1565 1565 1565 1565 1565 1565 1565 1565 1565 1565 1565 1564 1564 1564 1563 1563 1562 1561
1470 1474 1477 1479 1482 1486 1489 1491 1494 1496 1498 1500 1502 1504 1507 1509 1512 1514 1516 1519 1521 1523 1525 1527 1528 1530 1531 1532 1534 1535 1537 1538 1539 1539 1540 1540 1541 1542 1544 1545 1546 1547 1547 1548 1549 1550 1550 1551 1552 1553 1554 1554 1556 1557 1559 1560 1560 1561 1562 1563 1563 1563 1563 1563 1563 1563 1562 1563 1563 1563 1563 1563 1563 1563 1563 1563 1563 1562 1562 1562 1562 1561 1561 1560 1559
1468 1470 1473 1475 1479 1482 1484 1487 1489 1491 1493 1495 1497 1500 1503 1506 1508 1510 1513 1515 1517 1520 1522 1524 1525 1527 1528 1529 1530 1532 1533 1534 1536 1537 1537 1538 1539 1540 1542 1543 1544 1545 1545 1545 1546 1547 1548 1548 1549 1551 1552 1552 1553 1555 1556 1558 1559 1560 1560 1561 1561 1562 1562 1562 1561 1561 1561 1561 1561 1561 1561 1561 1561 1561 1561 1561 1560 1560 1560 1560 1560 1560 1559 1559 1558
1464 1466 1469 1473 1476 1478 1480 1483 1485 1486 1489 1491 1493 1496 1499 1502 1504 1507 1509 1511 1514 1516 1518 1520 1521 1523 1524 1525 1527 1528 1530 1531 1532 1534 1534 1535 1537 1538 1539 1540 1541 1542 1542 1543 1543 1544 1545 1546 1547 1549 1550 1550 1551 1552 1554 1555 1557 1558 1558 1559 1560 1560 1560 1560 1560 1560 1560 1559 1559 1560 1560 1559 1559 1559 1559 1558 1558 1557 1557 1557 1557 1557 1556 1556 1556
1460 1463 1466 1469 1472 1473 1476 1478 1480 1482 1485 1487 1490 1493 1495 1498 1501 1503 1506 1508 1510 1512 1514 1516 1517 1519 1520 1522 1524 1525 1527 1528 1529 1530 1532 1533 1535 1536 1537 1537 1538 1539 1539 1540 1541 1542 1543 1544 1545 1547 1548 1548 1549 1550 1552 1553 1554 1555 1556 1557 1558 1558 1559 1559 1559 1559 1558 1558 1558 1558 1558 1557 1557 1557 1557 1556 1555 1554 1554 1554 1554 1554 1553 1553 1552
1456 1459 1462 1465 1467 1469 1471 1474 1476 1479 1482 1485 1487 1490 1492 1494 1496 1499 1502 1504 1506 1508 1510 1512 1513 1515 1517 1519 1520 1522 1523 1524 1525 1527 1529 1530 1532 1533 1534 1534 1534 1536 1537 1538 1540 1540 1541 1542 1543 1544 1545 1546 1548 1549 1550 1551 1552 1553 1554 1555 1556 1557 1557 1557 1558 1557 1557 1557 1556 1556 1556 1555 1555 1555 1555 1555 1554 1553 1552 1551 1550 1550 1551 1550 1549
1452 1454 1457 1460 1462 1464 1467 1471 1474 1477 1480 1482 1484 1486 1488 1490 1492 1495 1498 1500 1502 1504 1506 1508 1510 1512 1513 1515 1517 1519 1520 1521 1521 1523 1525 1527 1529 1530 1530 1531 1532 1534 1536 1537 1538 1538 1538 1539 1540 1542 1543 1544 1545 1547 1548 1549 1550 1551 1552 1553 1554 1555 1555 1556 1556 1556 1556 1555 1555 1554 1554 1553 1553 1553 1553 1553 1552 1552 1551 1550 1548 1548 1548 1547 1546
1447 1450 1452 1454 1456 1459 1464 1468 1471 1474 1477 1479 1480 1482 1484 1487 1489 1491 1494 1496 1498 1500 1503 1505 1506 1508 1509 1511 1513 1515 1515 1516 1517 1519 1521 1523 1526 1527 1527 1529 1531 1532 1534 1535 1535 1536 1537 1537 1538 1539 1540 1541 1543 1544 1546 1547 1548 1549 1550 1551 1552 1552 1553 1554 1554 1554 1554 1554 1553 1552 1552 1551 1551 1551 1551 1551 1550 1550 1549 1548 1546 1545 1545 1544 1543
1442 1445 1447 1448 1452 1456 1460 1463 1467 1470 1472 1474 1476 1479 1481 1483 1485 1487 1489 1492 1494 1497 1499 1501 1502 1504 1506 1507 1509 1510 1510 1511 1512 1515 1517 1520 1523 1523 1524 1527 1529 1530 1531 1532 1533 1533 1534 1535 1535 1536 1538 1539 1541 1542 1543 1545 1545 1546 1548 1548 1549 1550 1550 1551 1551 1551 1552 1551 1550 1550 1550 1549 1549 1549 1549 1548 1548 1547 1546 1545 1543 1543 1542 1540 1539
1438 1440 1441 1443 1448 1452 1455 1459 1462 1465 1467 1470 1473 1475 1478 1480 1481 1483 1485 1488 1490 1492 1494 1496 1497 1500 1501 1503 1504 1504 1505 1506 1508 1511 1514 1518 1520 1521 1522 1525 1527 1527 1528 1528 1530 1530 1531 1532 1533 1534 1535 1536 1538 1539 1541 1542 1543 1544 1545 1545 1546 1547 1548 1548 1548 1548 1549 1548 1548 1548 1547 1546 1547 1547 1546 1546 1545 1544 1543 1542 1541 1540 1539 1537 1536
1433 1435 1437 1441 1444 1447 1450 1454 1457 1460 1462 1465 1468 1471 1474 1476 1478 1479 1481 1483 1485 1488 1490 1491 1493 1495 1497 1498 1499 1500 1501 1502 1504 1506 1510 1514 1518 1519 1519 1521 1523 1523 1523 1525 1526 1528 1529 1530 1530 1531 1532 1533 1535 1537 1538 1539 1540 1541 1542 1543 1543 1544 1545 1545 1546 1546 1546 1546 1545 1545 1544 1544 1545 1545 1544 1543 1542 1541 1540 1539 1538 1537 1536 1535 1534
1429 1431 1433 1437 1440 1442 1445 1449 1452 1454 1457 1460 1464 1467 1470 1471 1472 1474 1476 1479 1482 1483 1485 1487 1489 1491 1492 1493 1494 1495 1497 1498 1499 1502 1506 1511 1515 1515 1515 1517 1518 1519 1520 1522 1524 1525 1526 1527 1528 1528 1529 1530 1532 1533 1535 1536 1537 1538 1539 1540 1541 1542 1542 1543 1543 1543 1543 1543 1542 1542 1542 1542 1542 1542 1541 1540 1539 1538 1537 1536 1535 1534 1533 1532 1532
1425 1427 1430 1433 1435 1438 1441 1443 1446 1449 1452 1456 1460 1462 1464 1466 1468 1470 1472 1475 1477 1478 1480 1482 1484 1486 1487 1488 1490 1491 1493 1494 1495 1498 1501 1506 1510 1512 1513 1514 1515 1516 1517 1518 1520 1522 1523 1524 1525 1526 1527 1527 1528 1530 1531 1532 1534 1535 1536 1537 1538 1539 1540 1540 1541 1540 1540 1540 1539 1539 1540 1540 1539 1539 1538 1537 1536 1535 1534 1533 1532 1531 1530 1530 1529
1421 1424 1427 1429 1432 1434 1436 1438 1441 1445 1448 1451 1454 1456 1458 1460 1463 1465 1468 1470 1472 1473 1475 1478 1480 1481 1483 1484 1486 1487 1488 1489 1491 1493 1497 1500 1504 1509 1513 1514 1514 1514 1514 1514 1515 1517 1519 1521 1522 1523 1524 1524 1525 1526 1528 1529 1531 1532 1533 1534 1535 1536 1537 1537 1538 1538 1537 1537 1537 1537 1537 1537 1536 1536 1535 1535 1533 1532 1531 1530 1529 1528 1527 1526 1526
1418 1421 1423 1426 1428 1430 1432 1435 1438 1441 1444 1447 1449 1451 1453 1455 1457 1460 1463 1465 1467 1469 1471 1473 1475 1477 1478 1480 1482 1483 1484 1485 1487 1489 1492 1495 1499 1504 1509 1511 1512 1512 1511 1511 1513 1514 1515 1517 1519 1520 1520 1521 1522 1523 1525 1526 1528 1529 1530 1531 1532 1533 1534 1535 1535 1535 1535 1534 1534 1534 1534 1534 1533 1533 1532 1532 1530 1529 1528 1527 1527 1526 1524 1523 1522
1414 1417 1419 1421 1424 1426 1428 1431 1434 1438 1441 1442 1443 1445 1448 1450 1453 1456 1458 1460 1463 1464 1466 1468 1470 1472 1474 1475 1477 1479 1480 1481 1483 1486 1488 1491 1496 1500 1503 1505 1508 1510 1510 1511 1511 1510 1511 1513 1515 1517 1517 1518 1519 1520 1522 1524 1525 1526 1527 1528 1530 1530 1531 1532 1532 1532 1532 1532 1532 1531 1531 1531 1531 1530 1529 1528 1527 1526 1525 1524 1524 1523 1521 1520 1519
1410 1412 1414 1416 1419 1421 1424 1427 1430 1434 1436 1437 1438 1441 1444 1447 1449 1451 1454 1455 1458 1460 1462 1464 1466 1468 1470 1471 1473 1475 1476 1478 1480 1483 1485 1487 1492 1497 1498 1499 1503 1506 1507 1509 1509 1508 1508 1510 1512 1513 1514 1515 1516 1518 1519 1521 1522 1523 1525 1526 1526 1527 1528 1529 1529 1529 1529 1529 1529 1529 1529 1528 1528 1527 1526 1525 1524 1523 1522 1521 1520 1519 1518 1517 1516
1405 1408 1410 1412 1415 1417 1420 1423 1426 1429 1431 1432 1434 1437 1440 1443 1446 1448 1450 1452 1454 1456 1459 1461 1462 1463 1465 1467 1470 1472 1473 1475 1477 1479 1482 1484 1488 1493 1495 1495 1498 1501 1502 1504 1505 1506 1506 1507 1509 1510 1511 1512 1514 1515 1516 1518 1519 1521 1522 1523 1523 1524 1525 1525 1525 1526 1526 1527 1527 1527 1526 1526 1525 1524 1523 1522 1521 1520 1519 1518 1517 1516 1516 1515 1515
1402 1404 1407 1410 1412 1414 1416 1418 1420 1423 1425 1427 1429 1433 1436 1439 1442 1444 1446 1448 1450 1453 1454 1456 1457 1459 1461 1464 1466 1468 1469 1471 1473 1476 1479 1480 1482 1487 1491 1493 1495 1497 1497 1499 1501 1503 1503 1505 1506 1507 1509 1510 1511 1513 1514 1516 1517 1519 1520 1520 1520 1521 1522 1522 1522 1523 1524 1524 1524 1524 1523 1523 1522 1521 1520 1519 1518 1517 1516 1515 1515 1514 1513 1513 1512
1398 1401 1403 1406 1408 1410 1411 1413 1414 1416 1419 1422 1425 1429 1431 1434 1437 1439 1442 1444 1446 1448 1450 1451 1453 1455 1457 1459 1461 1464 1465 1467 1470 1473 1476 1477 1477 1481 1486 1490 1493 1494 1494 1496 1498 1499 1501 1502 1503 1505 1507 1508 1509 1511 1512 1514 1515 1516 1517 1518 1518 1518 1519 1519 1520 1520 1521 1521 1521 1521 1520 1520 1519 1518 1517 1516 1515 1514 1513 1513 1512 1512 1511 1511 1510
1395 1397 1399 1401 1402 1404 1406 1407 1408 1411 1414 1417 1421 1423 1425 1429 1432 1435 1438 1440 1442 1443 1445 1446 1448 1450 1452 1455 1457 1460 1462 1464 1467 1471 1473 1474 1475 1476 1480 1485 1488 1489 1491 1493 1495 1496 1498 1499 1501 1503 1504 1505 1507 1508 1510 1512 1513 1514 1515 1515 1515 1516 1516 1517 1517 1518 1518 1518 1518 1518 1517 1517 1516 1515 1514 1513 1512 1512 1511 1511 1511 1510 1509 1509 1508
1392 1393 1395 1396 1398 1399 1400 1402 1404 1406 1408 1411 1414 1417 1421 1424 1427 1429 1433 1435 1437 1439 1440 1442 1444 1446 1448 1450 1453 1456 1458 1460 1464 1468 1470 1471 1473 1474 1477 1480 1483 1485 1488 1490 1492 1494 1496 1497 1499 1501 1502 1503 1505 1506 1508 1510 1511 1512 1512 1513 1513 1514 1514 1515 1515 1515 1515 1515 1515 1515 1514 1514 1513 1512 1512 1511 1511 1510 1510 1510 1509 1509 1508 1507 1506
1387 1388 1389 1391 1393 1395 1396 1398 1400 1401 1403 1406 1409 1412 1416 1418 1421 1423 1426 1429 1432 1435 1437 1438 1440 1441 1443 1446 1449 1452 1454 1458 1462 1466 1468 1470 1471 1473 1475 1477 1480 1483 1486 1488 1490 1492 1493 1495 1497 1498 1499 1501 1503 1505 1507 1508 1509 1510 1510 1510 1511 1511 1512 1512 1512 1513 1513 1513 1512 1512 1511 1511 1511 1510 1510 1509 1509 1509 1508 1508 1508 1507 1506 1505 1505
1382 1382 1383 1384 1385 1388 1390 1392 1395 1396 1398 1400 1402 1405 1408 1412 1415 1416 1418 1421 1425 1429 1431 1434 1436 1437 1440 1442 1445 1448 1451 1455 1460 1463 1465 1468 1470 1471 1473 1476 1478 1481 1484 1486 1488 1490 1491 1493 1495 1496 1497 1499 1501 1504 1505 1506 1507 1507 1507 1508 1508 1509 1509 1510 1510 1510 1510 1510 1510 1510 1510 1509 1509 1508 1508 1508 1507 1507 1507 1506 1506 1505 1504 1503 1502
1376 1376 1377 1378 1379 1382 1383 1385 1387 1389 1391 1393 1394 1396 1398 1403 1408 1410 1412 1415 1418 1422 1425 1428 1431 1434 1436 1439 1442 1445 1449 1453 1456 1459 1462 1464 1466 1469 1471 1474 1476 1479 1481 1484 1486 1487 1489 1491 1492 1494 1496 1498 1500 1502 1503 1503 1504 1505 1505 1506 1506 1506 1507 1507 1507 1507 1507 1507 1508 1508 1508 1507 1507 1507 1506 1506 1506 1505 1505 1504 1503 1503 1502 1500 1499
1372 1372 1372 1372 1374 1375 1376 1378 1379 1381 1382 1384 1386 1388 1391 1395 1400 1404 1406 1408 1411 1414 1418 1422 1426 1429 1432 1436 1440 1443 1447 1450 1453 1455 1458 1460 1463 1465 1468 1471 1474 1476 1479 1481 1483 1485 1488 1489 1491 1493 1494 1496 1498 1499 1500 1501 1502 1503 1503 1503 1503 1504 1504 1504 1505 1505 1505 1505 1506 1506 1506 1506 1505 1505 1505 1504 1504 1503 1502 1502 1501 1500 1499 1497 1495
1368 1368 1368 1368 1367 1366 1368 1370 1372 1373 1375 1376 1379 1381 1384 1389 1393 1396 1398 1401 1403 1406 1410 1414 1419 1423 1427 1432 1436 1440 1444 1447 1450 1454 1457 1458 1460 1462 1465 1468 1471 1473 1476 1479 1481 1484 1486 1488 1489 1491 1493 1494 1496 1497 1498 1499 1500 1500 1500 1500 1500 1501 1501 1502 1502 1503 1503 1504 1504 1504 1504 1504 1504 1503 1503 1503 1502 1501 1500 1500 1498 1497 1496 1495 1493
1364 1363 1363 1363 1361 1360 1360 1361 1362 1365 1367 1370 1373 1375 1378 1382 1386 1389 1392 1395 1397 1400 1404 1409 1414 1419 1424 1429 1434 1438 1441 1445 1449 1453 1456 1458 1459 1460 1463 1466 1468 1471 1474 1477 1480 1482 1484 1486 1488 1490 1491 1493 1494 1495 1497 1497 1498 1498 1498 1498 1498 1498 1499 1499 1500 1501 1501 1502 1503 1503 1502 1502 1502 1502 1501 1501 1500 1499 1498 1497 1496 1495 1494 1492 1491
1363 1361 1359 1358 1357 1356 1356 1356 1356 1357 1359 1361 1364 1368 1372 1376 1379 1381 1384 1389 1394 1399 1405 1410 1415 1419 1423 1427 1432 1436 1440 1444 1448 1451 1454 1457 1458 1460 1463 1465 1467 1470 1473 1475 1478 1480 1482 1484 1486 1488 1490 1491 1492 1493 1494 1495 1495 1495 1495 1495 1496 1496 1496 1497 1498 1499 1500 1500 1500 1500 1500 1500 1500 1500 1499 1499 1498 1497 1496 1495 1494 1493 1491 1490 1489
1363 1360 1357 1354 1353 1352 1352 1352 1352 1353 1353 1354 1355 1358 1363 1369 1373 1375 1379 1386 1394 1401 1406 1412 1417 1421 1423 1427 1431 1435 1440 1444 1447 1450 1453 1455 1457 1460 1462 1464 1466 1469 1471 1474 1476 1478 1480 1482 1484 1486 1488 1489 1490 1491 1492 1492 1493 1493 1493 1493 1493 1493 1494 1495 1496 1497 1498 1498 1498 1498 1498 1499 1498 1498 1497 1497 1496 1495 1495 1493 1492 1491 1490 1489 1487
1362 1360 1356 1352 1350 1350 1348 1347 1347 1348 1350 1351 1352 1352 1355 1360 1366 1370 1375 1384 1393 1398 1402 1409 1416 1420 1423 1426 1430 1434 1438 1442 1446 1449 1452 1453 1455 1458 1461 1463 1465 1468 1470 1472 1474 1476 1478 1480 1483 1484 1486 1487 1488 1489 1490 1490 1491 1491 1491 1491 1491 1491 1492 1493 1494 1495 1496 1496 1496 1496 1496 1496 1496 1495 1495 1495 1494 1493 1492 1491 1490 1489 1488 1487 1486
1361 1361 1358 1351 1346 1346 1346 1344 1343 1344 1346 1348 1349 1350 1350 1353 1357 1361 1368 1379 1389 1395 1399 1407 1414 1418 1422 1425 1429 1434 1438 1440 1444 1447 1449 1451 1453 1456 1460 1463 1465 1467 1469 1471 1472 1474 1476 1479 1481 1483 1484 1485 1486 1487 1488 1488 1489 1489 1489 1489 1489 1489 1490 1491 1492 1493 1494 1494 1495 1494 1494 1494 1494 1493 1493 1493 1492 1491 1490 1489 1488 1487 1486 1485 1484
1363 1364 1363 1354 1347 1347 1349 1350 1350 1349 1346 1345 1348 1351 1352 1353 1356 1358 1363 1374 1387 1394 1398 1405 1411 1415 1419 1424 1428 1433 1437 1440 1443 1446 1447 1449 1452 1454 1458 1461 1464 1465 1467 1469 1470 1473 1475 1477 1479 1481 1482 1483 1484 1485 1486 1486 1487 1487 1486 1487 1487 1488 1488 1489 1490 1491 1492 1492 1492 1492 1492 1492 1492 1491 1491 1491 1490 1489 1488 1487 1486 1485 1484 1483 1482
1363 1364 1364 1359 1355 1356 1357 1358 1358 1357 1353 1351 1354 1358 1360 1363 1367 1369 1372 1379 1388 1392 1395 1401 1407 1413 1418 1423 1428 1432 1435 1438 1442 1445 1447 1449 1451 1453 1456 1459 1461 1463 1464 1466 1468 1471 1473 1475 1477 1478 1480 1481 1482 1483 1484 1484 1484 1484 1484 1485 1485 1486 1487 1487 1488 1489 1490 1490 1490 1490 1490 1490 1490 1490 1489 1489 1488 1487 1486 1485 1484 1483 1482 1481 1480
1365 1365 1365 1364 1364 1364 1364 1363 1363 1362 1361 1361 1363 1366 1368 1373 1377 1381 1384 1388 1390 1391 1394 1400 1407 1413 1419 1424 1428 1432 1434 1437 1441 1445 1448 1449 1451 1452 1455 1457 1459 1461 1463 1465 1467 1469 1471 1473 1475 1476 1478 1479 1480 1481 1482 1482 1483 1483 1483 1483 1483 1484 1485 1486 1487 1487 1488 1488 1488 1488 1488 1488 1488 1487 1487 1486 1486 1485 1484 1483 1482 1481 1480 1479 1478
1371 1370 1370 1371 1372 1371 1370 1369 1368 1368 1368 1369 1371 1373 1376 1381 1385 1387 1390 1392 1393 1394 1398 1403 1408 1414 1420 1424 1428 1431 1433 1436 1441 1445 1448 1450 1451 1453 1455 1457 1459 1460 1462 1463 1465 1467 1469 1471 1473 1474 1476 1477 1478 1479 1480 1481 1481 1481 1481 1481 1482 1483 1483 1484 1485 1485 1486 1486 1486 1486 1486 1486 1485 1485 1485 1484 1484 1483 1482 1481 1480 1479 1479 1478 1477
1377 1377 1377 1377 1378 1377 1376 1376 1376 1375 1376 1377 1379 1381 1384 1387 1389 1391 1393 1394 1396 1399 1402 1405 1409 1415 1420 1424 1427 1430 1433 1436 1440 1443 1446 1449 1450 1452 1454 1456 1458 1459 1461 1462 1464 1465 1467 1469 1471 1472 1474 1475 1476 1478 1479 1479 1479 1479 1479 1480 1481 1481 1482 1482 1483 1483 1484 1484 1484 1484 1484 1484 1483 1483 1483 1482 1482 1481 1480 1479 1478 1477 1477 1476 1475
1381 1382 1382 1381 1381 1381 1381 1381 1381 1382 1382 1383 1385 1386 1388 1390 1392 1393 1395 1397 1399 1402 1405 1408 1413 1417 1421 1424 1427 1430 1433 1436 1439 1442 1445 1448 1450 1452 1453 1455 1456 1458 1459 1460 1462 1464 1466 1468 1469 1471 1472 1473 1475 1476 1477 1477 1477 1477 1478 1478 1479 1479 1480 1480 1481 1481 1482 1482 1482 1482 1482 1481 1481 1481 1481 1481 1480 1479 1478 1477 1476 1476 1475 1474 1473
1384 1384 1384 1384 1384 1384 1384 1384 1384 1385 1386 1387 1388 1389 1390 1392 1393 1395 1397 1399 1401 1404 1407 1411 1415 1420 1423 1426 1428 1431 1434 1437 1439 1442 1445 1447 1449 1451 1453 1454 1455 1456 1457 1459 1461 1463 1465 1466 1468 1469 1471 1472 1474 1475 1475 1475 1475 1476 1476 1476 1477 1477 1477 1478 1479 1479 1479 1480 1480 1480 1480 1479 1479 1479 1479 1479 1478 1477 1476 1475 1475 1474 1473 1472 1471
1386 1385 1385 1386 1386 1386 1386 1386 1386 1387 1388 1389 1390 1391 1392 1393 1394 1396 1398 1400 1403 1406 1410 1414 1417 1421 1424 1428 1430 1433 1435 1437 1439 1442 1445 1448 1450 1451 1453 1454 1455 1455 1457 1458 1460 1461 1463 1464 1466 1468 1469 1471 1472 1473 1473 1474 1474 1474 1474 1475 1475 1475 1476 1476 1477 1477 1477 1477 1477 1477 1477 1478 1477 1477 1477 1477 1476 1475 1474 1474 1473 1472 1472 1471 1470
1388 1387 1387 1388 1388 1388 1388 1387 1388 1389 1390 1391 1391 1392 1393 1394 1396 1398 1400 1403 1406 1409 1412 1415 1418 1421 1424 1427 1430 1433 1435 1437 1439 1442 1445 1447 1449 1451 1452 1453 1454 1455 1456 1457 1458 1459 1461 1463 1465 1466 1468 1470 1471 1471 1472 1472 1472 1472 1473 1473 1473 1474 1474 1474 1475 1475 1475 1475 1475 1475 1475 1475 1475 1475 1475 1475 1474 1473 1473 1472 1471 1471 1470 1469 1468
1390 1389 1389 1390 1390 1390 1390 1390 1390 1391 1391 1392 1393 1395 1396 1397 1398 1400 1402 1405 1408 1411 1413 1416 1419 1422 1424 1427 1430 1432 1434 1436 1439 1441 1444 1446 1448 1449 1451 1452 1453 1454 1455 1456 1457 1458 1460 1462 1464 1466 1467 1468 1469 1470 1470 1470 1471 1471 1471 1472 1472 1472 1472 1473 1473 1473 1473 1473 1473 1473 1473 1473 1473 1473 1473 1472 1472 1471 1471 1470 1470 1469 1468 1468 1467
1393 1392 1392 1392 1392 1392 1392 1392 1392 1392 1393 1394 1395 1397 1399 1400 1402 1403 1405 1407 1410 1413 1416 1418 1420 1422 1424 1427 1429 1432 1434 1435 1437 1439 1442 1444 1446 1447 1449 1450 1451 1453 1454 1455 1456 1458 1459 1461 1463 1465 1466 1467 1468 1468 1468 1469 1469 1469 1470 1470 1470 1470 1471 1471 1470 1470 1470 1470 1470 1470 1470 1470 1470 1471 1470 1470 1470 1469 1469 1468 1468 1467 1467 1466 1465
1394 1394 1394 1394 1394 1394 1394 1394 1395 1395 1395 1396 1397 1399 1401 1403 1404 1406 1407 1409 1412 1414 1417 1418 1420 1422 1424 1426 1429 1431 1433 1435 1437 1438 1440 1442 1444 1446 1447 1448 1450 1451 1452 1453 1455 1457 1459 1461 1463 1464 1465 1466 1466 1467 1467 1468 1468 1468 1468 1468 1468 1469 1468 1468 1468 1468 1468 1467 1467 1467 1467 1467 1468 1468 1468 1468 1467 1467 1467 1466 1466 1466 1465 1464 1464
1395 1396 1396 1396 1396 1396 1396 1396 1397 1397 1398 1399 1400 1402 1404 1405 1407 1408 1410 1411 1413 1415 1417 1419 1420 1422 1424 1426 1429 1431 1433 1434 1436 1438 1439 1441 1442 1444 1445 1446 1448 1450 1451 1452 1454 1456 1458 1460 1462 1463 1463 1464 1465 1466 1466 1467 1467 1467 1467 1467 1467 1467 1466 1466 1466 1465 1465 1465 1464 1464 1464 1465 1465 1466 1466 1466 1465 1465 1465 1465 1464 1464 1463 1463 1462
1396 1396 1397 1397 1398 1398 1398 1398 1399 1399 1400 1402 1403 1404 1406 1407 1409 1410 1412 1413 1414 1416 1417 1419 1421 1422 1424 1426 1428 1430 1432 1434 1435 1437 1438 1440 1441 1442 1444 1445 1446 1448 1450 1452 1454 1456 1458 1460 1461 1461 1462 1463 1463 1464 1465 1466 1466 1466 1466 1466 1465 1464 1464 1463 1463 1462 1462 1462 1462 1461 1462 1462 1462 1463 1463 1464 1464 1463 1463 1463 1463 1462 1462 1461 1461
1397 1398 1398 1398 1399 1400 1400 1400 1401 1401 1402 1403 1405 1406 1407 1408 1409 1411 1412 1413 1415 1416 1417 1419 1420 1422 1424 1426 1428 1430 1432 1433 1435 1436 1437 1438 1440 1441 1442 1444 1446 1448 1449 1451 1454 1456 1457 1458 1459 1459 1460 1461 1462 1463 1464 1464 1465 1465 1465 1464 1464 1462 1461 1460 1460 1460 1460 1459 1459 1459 1459 1460 1460 1461 1461 1462 1462 1462 1461 1461 1461 1460 1460 1460 1460
1398 1399 1399 1400 1400 1401 1401 1401 1401 1402 1403 1404 1406 1407 1407 1407 1409 1410 1411 1413 1415 1416 1417 1418 1420 1422 1424 1425 1427 1429 1431 1432 1434 1435 1436 1437 1439 1440 1442 1443 1445 1447 1449 1451 1453 1454 1455 1456 1457 1458 1459 1460 1461 1462 1463 1463 1463 1464 1463 1463 1462 1460 1459 1458 1458 1458 1458 1457 1457 1457 1457 1457 1458 1459 1459 1460 1460 1460 1460 1460 1459 1459 1458 1458 1458
1400 1400 1401 1401 1401 1401 1401 1401 1401 1402 1403 1404 1405 1406 1406 1407 1409 1410 1411 1412 1413 1414 1415 1417 1419 1421 1423 1425 1427 1428 1430 1432 1433 1434 1435 1437 1438 1440 1441 1443 1444 1446 1448 1450 1452 1453 1454 1454 1455 1456 1458 1458 1459 1460 1461 1461 1462 1462 1462 1461 1460 1459 1458 1458 1457 1457 1456 1456 1455 1456 1456 1456 1457 1457 1458 1458 1458 1458 1458 1458 1457 1457 1457 1457 1457
1402 1402 1402 1402 1402 1402 1402 1402 1402 1403 1404 1404 1405 1406 1406 1407 1408 1409 1410 1411 1412 1413 1415 1418 1420 1422 1424 1425 1427 1428 1430 1431 1433 1434 1435 1436 1438 1439 1441 1442 1444 1446 1447 1449 1450 1451 1452 1453 1454 1455 1456 1457 1457 1458 1459 1459 1460 1460 1460 1460 1459 1458 1458 1457 1457 1456 1456 1455 1454 1454 1454 1455 1455 1455 1456 1456 1456 1456 1456 1456 1455 1455 1455 1455 1455